User: anonymous   Login
Location: Winterland
(47.1574°N, 55.3067°W)
Time: 22:00:12
(UTC+00:00)
Language:

Tiangong - Orbit

View from above orbital plane
View from above orbital plane
View from above satellite
View from above satellite

Ground track
Ground track

The orbit data is extracted from the following two-line orbital elements,

1 48274U 21035A   23336.59146610  .00021304  00000-0  22902-3 0  9993
2 48274  41.4691 210.3820 0007926 261.8811  98.1129 15.63201345148169
Epoch (UTC): 02 December 2023 14:11:42
Eccentricity: 0.0007926
inclination: 41.4691°
perigee height: 373 km
apogee height: 384 km
right ascension of ascending node: 210.3820°
argument of perigee: 261.8811°
revolutions per day: 15.63201345
mean anomaly at epoch: 98.1129°
orbit number at epoch: 14816

The dashed part of the orbit path shows where the satellite is in the earth's shadow,  

DLR